contact:dominique.lefevre@mio.osupytheas.fr, maurice.libes@osupytheas.fr, didier.mallarino@osupytheas.fr
Project:EMSO http://www.emso-fr.org/EMSO-France
Depth: 2436.0 m
Title:EMSO Ligure Ouest : Data MII capteur AQUADOPP
Date,Latitude,Longitude,X_East,Y_North,Z_Up,Amplitude_X,Amplitude_Y,Amplitude_Z,Batterie,SoundSpeed,Heading,Pitch,Roll,Pressure,TIS,Speed,Direction
, degrees North, degrees East, m.s-1, m.s-1,m.s-1, 1, 1, 1, Volt, m.s-1, degree, degree, degree, dbar, degree_C, m.s-1, degree
2020-03-04T00:04:03,42.805,6.029,0.012,0.011,-0.032,105.0,105.0,102.0,13.3,1505.3,326.9,-0.8,1.8,2470.345,13.31,0.016,47.5
2020-03-04T00:07:03,42.805,6.029,-0.008,0.013,-0.054,105.0,107.0,102.0,13.3,1505.3,323.2,-0.7,1.9,2470.325,13.32,0.015,328.4
2020-03-04T00:10:03,42.805,6.029,-0.012,-0.004,-0.055,105.0,107.0,102.0,13.4,1505.3,327.8,-0.7,1.9,2470.297,13.33,0.012,251.6
2020-03-04T00:13:03,42.805,6.029,0.0,0.015,-0.039,105.0,106.0,101.0,13.4,1505.3,324.4,-0.7,1.8,2470.304,13.33,0.015,0.0
2020-03-04T00:16:03,42.805,6.029,0.0,0.005,-0.057,104.0,106.0,103.0,13.4,1505.3,327.6,-0.7,1.8,2470.289,13.33,0.005,0.0
2020-03-04T00:19:03,42.805,6.029,-0.011,0.016,-0.067,105.0,107.0,102.0,13.4,1505.3,326.4,-0.7,1.8,2470.273,13.33,0.019,325.5
2020-03-04T00:22:03,42.805,6.029,-0.015,0.013,-0.038,105.0,107.0,101.0,13.4,1505.3,323.8,-0.7,1.8,2470.31,13.33,0.019,310.9
2020-03-04T00:25:03,42.805,6.029,0.019,-0.002,-0.011,105.0,108.0,102.0,13.4,1505.3,326.7,-0.7,1.8,2470.317,13.33,0.019,96.0
2020-03-04T00:28:03,42.805,6.029,-0.015,0.007,-0.044,104.0,107.0,103.0,13.4,1505.3,324.8,-0.7,1.8,2470.316,13.33,0.016,295.0
2020-03-04T00:31:03,42.805,6.029,0.015,0.007,-0.049,105.0,109.0,101.0,13.4,1505.3,323.8,-0.7,1.8,2470.32,13.33,0.016,65.0
2020-03-04T00:34:03,42.805,6.029,-0.006,0.004,-0.029,105.0,108.0,103.0,13.4,1505.3,326.6,-0.7,1.8,2470.299,13.33,0.007,303.7
2020-03-04T00:37:03,42.805,6.029,-0.002,0.001,-0.029,105.0,108.0,102.0,13.4,1505.3,325.3,-0.7,1.8,2470.288,13.33,0.002,296.6
2020-03-04T00:40:03,42.805,6.029,-0.01,0.025,-0.036,104.0,107.0,101.0,13.4,1505.4,325.2,-0.7,1.8,2470.333,13.34,0.026,338.2
2020-03-04T00:43:03,42.805,6.029,-0.008,0.008,-0.051,104.0,107.0,101.0,13.4,1505.3,324.8,-0.7,1.8,2470.337,13.33,0.011,315.0
2020-03-04T00:46:03,42.805,6.029,-0.03,0.012,-0.046,106.0,107.0,102.0,13.4,1505.3,323.4,-0.7,1.8,2470.27,13.33,0.032,291.8
2020-03-04T00:49:03,42.805,6.029,0.001,0.024,-0.027,106.0,106.0,101.0,13.4,1505.3,324.9,-0.7,1.9,2470.318,13.33,0.024,2.4
2020-03-04T00:55:03,42.805,6.029,-0.019,0.014,-0.044,104.0,107.0,102.0,13.4,1505.3,327.9,-0.7,1.8,2470.344,13.32,0.023,306.4
2020-03-04T00:58:03,42.805,6.029,-0.045,0.0,-0.059,104.0,107.0,102.0,13.3,1505.3,327.0,-0.7,1.8,2470.324,13.32,0.045,270.0
2020-03-04T01:04:03,42.805,6.029,0.012,0.016,-0.043,106.0,108.0,103.0,13.4,1505.3,323.5,-0.7,1.8,2470.356,13.31,0.02,36.9
2020-03-04T01:07:03,42.805,6.029,0.019,0.017,-0.04,104.0,106.0,102.0,13.4,1505.3,327.8,-0.7,1.8,2470.331,13.32,0.025,48.2
2020-03-04T01:10:03,42.805,6.029,-0.029,0.022,-0.041,104.0,106.0,102.0,13.4,1505.3,323.8,-0.8,1.8,2470.337,13.33,0.036,307.2
2020-03-04T01:13:03,42.805,6.029,-0.002,0.0,-0.027,106.0,108.0,102.0,13.4,1505.3,324.1,-0.7,1.8,2470.353,13.33,0.002,270.0
2020-03-04T01:16:03,42.805,6.029,-0.016,0.004,-0.046,104.0,106.0,102.0,13.3,1505.3,324.6,-0.7,1.8,2470.319,13.33,0.016,284.0
2020-03-04T01:19:03,42.805,6.029,-0.02,0.015,-0.047,105.0,109.0,102.0,13.4,1505.3,326.7,-0.7,1.8,2470.3,13.33,0.025,306.9
2020-03-04T01:22:03,42.805,6.029,-0.019,0.018,-0.006,103.0,107.0,100.0,13.4,1505.3,326.5,-0.7,1.8,2470.325,13.33,0.026,313.5
2020-03-04T01:25:03,42.805,6.029,-0.039,0.0,-0.067,104.0,107.0,101.0,13.4,1505.3,324.6,-0.7,1.8,2470.339,13.33,0.039,270.0
2020-03-04T01:28:03,42.805,6.029,-0.059,0.02,-0.075,103.0,108.0,101.0,13.4,1505.3,324.5,-0.7,1.8,2470.333,13.33,0.062,288.7
2020-03-04T01:31:03,42.805,6.029,-0.024,0.018,-0.006,103.0,108.0,102.0,13.4,1505.4,324.7,-0.7,1.9,2470.337,13.34,0.03,306.9
2020-03-04T01:34:03,42.805,6.029,-0.053,0.012,-0.058,104.0,107.0,103.0,13.3,1505.4,328.0,-0.7,1.9,2470.335,13.34,0.054,282.8
2020-03-04T01:37:03,42.805,6.029,0.013,0.021,-0.01,105.0,106.0,100.0,13.4,1505.4,324.9,-0.7,1.8,2470.336,13.34,0.024,31.8
2020-03-04T01:40:03,42.805,6.029,-0.013,0.033,-0.034,103.0,108.0,101.0,13.3,1505.4,326.2,-0.7,1.8,2470.31,13.34,0.035,338.5
2020-03-04T01:43:03,42.805,6.029,-0.037,0.017,-0.038,104.0,107.0,102.0,13.3,1505.4,326.3,-0.7,1.8,2470.327,13.34,0.04,294.7
2020-03-04T01:46:03,42.805,6.029,-0.029,0.002,-0.074,103.0,106.0,100.0,13.4,1505.4,324.7,-0.7,1.8,2470.34,13.34,0.029,273.9
2020-03-04T01:49:03,42.805,6.029,-0.017,0.033,-0.052,103.0,110.0,101.0,13.3,1505.4,324.6,-0.7,1.8,2470.3,13.34,0.037,332.7
2020-03-04T01:52:03,42.805,6.029,-0.011,0.03,-0.033,104.0,108.0,101.0,13.3,1505.4,325.3,-0.7,1.9,2470.324,13.34,0.031,339.9
2020-03-04T01:55:03,42.805,6.029,0.023,0.013,-0.015,105.0,108.0,101.0,13.4,1505.4,326.4,-0.7,1.8,2470.341,13.34,0.026,60.5
2020-03-04T01:58:03,42.805,6.029,0.009,0.035,-0.028,104.0,107.0,102.0,13.4,1505.4,327.5,-0.7,1.9,2470.325,13.34,0.036,14.4
2020-03-04T02:04:03,42.805,6.029,-0.012,0.014,-0.041,103.0,108.0,103.0,13.3,1505.3,325.4,-0.7,1.9,2470.348,13.32,0.018,319.4
2020-03-04T02:07:03,42.805,6.029,0.006,0.026,-0.023,106.0,106.0,102.0,13.4,1505.3,328.0,-0.7,1.8,2470.314,13.32,0.026,13.0
2020-03-04T02:10:03,42.805,6.029,-0.001,0.021,-0.045,105.0,109.0,102.0,13.4,1505.3,326.9,-0.7,1.8,2470.348,13.33,0.021,357.3
2020-03-04T02:13:03,42.805,6.029,0.01,0.019,-0.022,105.0,108.0,101.0,13.4,1505.3,327.1,-0.7,1.8,2470.338,13.33,0.021,27.8
2020-03-04T02:16:03,42.805,6.029,0.013,0.031,-0.017,103.0,108.0,102.0,13.4,1505.3,326.5,-0.7,1.8,2470.345,13.33,0.033,22.7
2020-03-04T02:19:03,42.805,6.029,0.006,0.023,-0.005,105.0,108.0,101.0,13.3,1505.3,325.8,-0.7,1.9,2470.29,13.33,0.023,14.6
2020-03-04T02:22:03,42.805,6.029,0.0,0.034,-0.04,105.0,109.0,101.0,13.4,1505.4,325.2,-0.7,1.8,2470.351,13.34,0.034,0.0
2020-03-04T02:25:03,42.805,6.029,-0.012,0.001,-0.05,104.0,109.0,101.0,13.3,1505.4,328.1,-0.7,1.8,2470.335,13.34,0.012,274.8
2020-03-04T02:28:03,42.805,6.029,0.005,0.005,-0.039,105.0,108.0,102.0,13.4,1505.4,326.9,-0.7,1.8,2470.375,13.34,0.007,45.0
2020-03-04T02:31:03,42.805,6.029,0.021,0.011,-0.021,103.0,110.0,101.0,13.4,1505.4,327.2,-0.7,1.8,2470.338,13.34,0.023,62.4
2020-03-04T02:34:03,42.805,6.029,0.023,0.018,-0.027,103.0,111.0,99.0,13.3,1505.4,326.4,-0.7,1.9,2470.37,13.34,0.029,52.0
2020-03-04T02:37:03,42.805,6.029,0.011,0.017,-0.04,104.0,108.0,102.0,13.4,1505.4,327.5,-0.7,1.8,2470.317,13.34,0.02,32.9
2020-03-04T02:40:03,42.805,6.029,-0.006,0.025,-0.019,104.0,109.0,102.0,13.4,1505.4,325.9,-0.7,1.8,2470.328,13.34,0.025,346.5
2020-03-04T02:43:03,42.805,6.029,0.021,0.019,-0.01,105.0,108.0,101.0,13.3,1505.4,326.0,-0.7,1.8,2470.348,13.34,0.028,47.9
2020-03-04T02:46:03,42.805,6.029,-0.024,0.023,-0.037,106.0,108.0,101.0,13.4,1505.4,324.6,-0.7,1.8,2470.32,13.34,0.033,313.8
2020-03-04T02:49:03,42.805,6.029,0.006,0.006,-0.03,106.0,107.0,101.0,13.4,1505.4,324.8,-0.7,1.9,2470.322,13.34,0.008,45.0
2020-03-04T02:52:03,42.805,6.029,-0.004,0.011,0.0,104.0,109.0,100.0,13.4,1505.4,322.8,-0.7,1.9,2470.306,13.34,0.011,340.0
2020-03-04T02:55:03,42.805,6.029,-0.012,0.0,-0.018,105.0,109.0,101.0,13.4,1505.4,328.3,-0.8,1.8,2470.318,13.34,0.012,270.0
2020-03-04T02:58:03,42.805,6.029,0.002,0.0,-0.042,103.0,107.0,101.0,13.3,1505.4,327.1,-0.7,1.8,2470.33,13.35,0.002,90.0
2020-03-04T03:04:03,42.805,6.029,-0.024,0.005,-0.06,104.0,111.0,101.0,13.4,1505.3,324.0,-0.7,1.8,2470.407,13.33,0.024,281.8
2020-03-04T03:07:03,42.805,6.029,-0.017,-0.002,-0.032,104.0,107.0,101.0,13.3,1505.3,324.4,-0.7,1.8,2470.348,13.33,0.017,263.3
2020-03-04T03:10:03,42.805,6.029,-0.043,0.01,-0.065,104.0,109.0,102.0,13.4,1505.4,327.9,-0.7,1.8,2470.363,13.34,0.044,283.1
2020-03-04T03:13:03,42.805,6.029,-0.005,0.004,-0.044,105.0,108.0,102.0,13.4,1505.4,325.4,-0.7,1.8,2470.353,13.34,0.006,308.7
2020-03-04T03:16:03,42.805,6.029,-0.026,0.014,-0.049,105.0,109.0,101.0,13.4,1505.4,328.5,-0.7,1.8,2470.344,13.34,0.029,298.3
2020-03-04T03:19:03,42.805,6.029,0.021,0.017,-0.001,105.0,110.0,102.0,13.4,1505.4,326.9,-0.7,1.8,2470.372,13.34,0.027,51.0
2020-03-04T03:22:03,42.805,6.029,0.024,0.033,0.027,103.0,107.0,101.0,13.3,1505.4,328.1,-0.7,1.8,2470.339,13.34,0.04,36.0
2020-03-04T03:25:03,42.805,6.029,-0.013,0.014,-0.028,102.0,109.0,103.0,13.4,1505.4,323.2,-0.7,1.9,2470.361,13.34,0.019,317.1
2020-03-04T03:28:03,42.805,6.029,0.03,0.019,-0.026,104.0,108.0,101.0,13.3,1505.4,326.4,-0.7,1.8,2470.321,13.34,0.035,57.7
2020-03-04T03:31:03,42.805,6.029,0.019,0.028,-0.031,104.0,109.0,101.0,13.4,1505.4,325.7,-0.7,1.8,2470.323,13.35,0.033,34.2
2020-03-04T03:34:03,42.805,6.029,0.033,0.033,-0.001,103.0,108.0,101.0,13.4,1505.4,328.1,-0.7,1.9,2470.327,13.35,0.046,45.0
2020-03-04T03:37:03,42.805,6.029,0.049,0.033,0.046,104.0,109.0,101.0,13.4,1505.4,326.3,-0.7,1.8,2470.301,13.35,0.059,56.0
2020-03-04T03:40:03,42.805,6.029,0.072,0.02,0.015,106.0,107.0,100.0,13.3,1505.4,323.0,-0.7,1.9,2470.318,13.35,0.074,74.5
2020-03-04T03:43:03,42.805,6.029,0.04,0.014,-0.024,103.0,107.0,103.0,13.3,1505.4,324.1,-0.7,1.9,2470.361,13.35,0.042,70.7
2020-03-04T03:46:03,42.805,6.029,0.036,0.027,0.002,105.0,108.0,100.0,13.3,1505.4,323.4,-0.7,1.8,2470.328,13.35,0.045,53.1
2020-03-04T03:49:03,42.805,6.029,0.046,0.003,0.047,103.0,109.0,102.0,13.4,1505.4,326.7,-0.7,1.8,2470.307,13.34,0.046,86.3
2020-03-04T03:52:03,42.805,6.029,0.019,0.008,-0.024,104.0,109.0,102.0,13.4,1505.4,325.1,-0.7,1.8,2470.34,13.34,0.02,67.2
2020-03-04T03:55:03,42.805,6.029,0.02,0.025,-0.011,105.0,109.0,99.0,13.4,1505.4,323.7,-0.7,1.8,2470.345,13.34,0.032,38.7
2020-03-04T03:58:03,42.805,6.029,0.034,0.009,-0.001,105.0,106.0,101.0,13.4,1505.4,325.0,-0.7,1.8,2470.368,13.34,0.035,75.2
2020-03-04T04:04:03,42.805,6.029,0.0,-0.005,-0.022,106.0,109.0,101.0,13.4,1505.3,324.3,-0.7,1.8,2470.402,13.32,0.005,180.0
2020-03-04T04:07:03,42.805,6.029,0.016,0.021,-0.016,104.0,108.0,102.0,13.4,1505.3,323.9,-0.7,1.8,2470.37,13.32,0.026,37.3
2020-03-04T04:10:03,42.805,6.029,0.035,0.009,-0.013,103.0,107.0,101.0,13.3,1505.3,326.6,-0.7,1.8,2470.365,13.33,0.036,75.6
2020-03-04T04:13:03,42.805,6.029,0.017,0.022,-0.02,104.0,107.0,101.0,13.3,1505.3,328.2,-0.7,1.9,2470.388,13.33,0.027,37.7
2020-03-04T04:16:03,42.805,6.029,-0.011,0.014,-0.056,101.0,108.0,102.0,13.4,1505.3,325.6,-0.8,1.8,2470.387,13.33,0.017,321.8
2020-03-04T04:19:03,42.805,6.029,0.022,0.012,-0.052,104.0,107.0,100.0,13.4,1505.3,327.7,-0.7,1.8,2470.379,13.33,0.025,61.4
2020-03-04T04:22:03,42.805,6.029,-0.005,0.011,-0.02,103.0,108.0,101.0,13.4,1505.3,325.7,-0.7,1.8,2470.339,13.33,0.012,335.6
2020-03-04T04:25:03,42.805,6.029,0.025,0.006,-0.022,103.0,108.0,101.0,13.4,1505.3,328.2,-0.7,1.8,2470.324,13.33,0.025,76.5
2020-03-04T04:28:03,42.805,6.029,-0.009,0.006,-0.013,103.0,108.0,101.0,13.3,1505.3,326.7,-0.7,1.9,2470.355,13.33,0.01,303.7
2020-03-04T04:31:03,42.805,6.029,0.015,0.028,-0.007,103.0,107.0,99.0,13.3,1505.3,325.2,-0.7,1.9,2470.352,13.33,0.031,28.2
2020-03-04T04:34:03,42.805,6.029,-0.001,-0.013,-0.074,103.0,108.0,100.0,13.4,1505.3,325.2,-0.7,1.8,2470.353,13.33,0.013,184.4
2020-03-04T04:37:03,42.805,6.029,0.036,0.004,-0.007,106.0,108.0,101.0,13.4,1505.3,324.5,-0.7,1.8,2470.367,13.33,0.036,83.7
2020-03-04T04:40:03,42.805,6.029,0.004,0.015,-0.042,104.0,108.0,100.0,13.4,1505.3,326.5,-0.7,1.8,2470.338,13.33,0.015,14.9
2020-03-04T04:43:03,42.805,6.029,0.004,0.01,-0.043,103.0,108.0,100.0,13.4,1505.3,328.3,-0.7,1.8,2470.35,13.33,0.01,21.8
2020-03-04T04:46:03,42.805,6.029,0.023,0.027,-0.006,102.0,107.0,101.0,13.4,1505.3,322.9,-0.7,1.8,2470.329,13.33,0.035,40.4
2020-03-04T04:49:03,42.805,6.029,0.01,0.006,-0.041,103.0,106.0,100.0,13.4,1505.3,325.9,-0.7,1.8,2470.326,13.33,0.011,59.0
2020-03-04T04:52:03,42.805,6.029,0.045,0.017,-0.024,105.0,105.0,101.0,13.4,1505.3,324.8,-0.7,1.8,2470.339,13.33,0.048,69.3
2020-03-04T04:55:03,42.805,6.029,0.022,0.002,-0.022,104.0,107.0,100.0,13.4,1505.3,324.1,-0.7,1.8,2470.359,13.33,0.022,84.8
2020-03-04T04:58:03,42.805,6.029,-0.003,0.003,-0.065,103.0,106.0,102.0,13.4,1505.3,326.5,-0.7,1.9,2470.343,13.33,0.004,315.0
2020-03-04T05:04:03,42.805,6.029,0.016,0.002,-0.012,103.0,106.0,102.0,13.4,1505.3,327.9,-0.7,1.8,2470.383,13.31,0.016,82.9
2020-03-04T05:07:03,42.805,6.029,0.026,0.004,-0.012,103.0,105.0,101.0,13.4,1505.3,325.7,-0.7,1.8,2470.341,13.32,0.026,81.3
2020-03-04T05:10:03,42.805,6.029,0.021,0.004,-0.023,103.0,107.0,101.0,13.4,1505.3,323.8,-0.7,1.9,2470.352,13.33,0.021,79.2
2020-03-04T05:13:03,42.805,6.029,0.002,0.009,-0.026,104.0,105.0,102.0,13.3,1505.3,325.0,-0.7,1.8,2470.404,13.33,0.009,12.5
2020-03-04T05:16:03,42.805,6.029,0.006,0.015,-0.037,104.0,105.0,100.0,13.4,1505.3,327.1,-0.7,1.8,2470.371,13.33,0.016,21.8
2020-03-04T05:19:03,42.805,6.029,0.03,0.015,-0.051,106.0,105.0,101.0,13.4,1505.3,326.9,-0.7,1.9,2470.336,13.33,0.033,63.4
2020-03-04T05:22:03,42.805,6.029,0.019,0.01,-0.037,102.0,105.0,102.0,13.3,1505.3,326.9,-0.7,1.8,2470.363,13.33,0.021,62.2
2020-03-04T05:25:03,42.805,6.029,0.023,0.017,-0.016,103.0,106.0,101.0,13.3,1505.3,328.5,-0.7,1.8,2470.384,13.33,0.028,53.5
2020-03-04T05:28:03,42.805,6.029,0.016,0.001,-0.032,102.0,105.0,103.0,13.4,1505.3,328.1,-0.7,1.8,2470.397,13.33,0.016,86.4
2020-03-04T05:31:03,42.805,6.029,0.031,0.018,-0.024,103.0,105.0,102.0,13.4,1505.3,323.7,-0.7,1.9,2470.388,13.33,0.035,59.9
2020-03-04T05:34:03,42.805,6.029,0.016,0.008,-0.017,105.0,105.0,102.0,13.4,1505.3,324.4,-0.7,1.8,2470.346,13.33,0.017,63.4
2020-03-04T05:37:03,42.805,6.029,0.023,0.017,-0.01,103.0,106.0,101.0,13.3,1505.3,324.3,-0.7,1.9,2470.34,13.33,0.028,53.5
2020-03-04T05:40:03,42.805,6.029,0.011,0.009,-0.045,103.0,105.0,101.0,13.3,1505.3,325.2,-0.7,1.8,2470.356,13.33,0.014,50.7
2020-03-04T05:43:03,42.805,6.029,0.02,0.009,-0.06,102.0,105.0,101.0,13.4,1505.3,327.0,-0.7,1.8,2470.375,13.33,0.021,65.8
2020-03-04T05:46:03,42.805,6.029,0.013,0.016,-0.017,102.0,106.0,102.0,13.4,1505.3,325.0,-0.7,1.8,2470.371,13.33,0.02,39.1
2020-03-04T05:49:03,42.805,6.029,0.006,-0.008,-0.041,104.0,106.0,101.0,13.4,1505.3,326.7,-0.7,1.8,2470.356,13.33,0.01,143.1
2020-03-04T05:52:03,42.805,6.029,0.024,0.007,-0.011,102.0,106.0,101.0,13.4,1505.3,327.3,-0.7,1.8,2470.347,13.33,0.025,73.7
2020-03-04T05:55:03,42.805,6.029,0.02,0.009,-0.019,107.0,106.0,101.0,13.3,1505.3,326.5,-0.7,1.8,2470.354,13.33,0.021,65.8
2020-03-04T05:58:03,42.805,6.029,0.01,0.01,-0.034,104.0,106.0,101.0,13.4,1505.3,324.0,-0.7,1.8,2470.367,13.33,0.014,45.0
2020-03-04T06:04:03,42.805,6.029,0.017,-0.003,-0.043,106.0,106.0,101.0,13.3,1505.3,324.2,-0.7,1.8,2470.402,13.31,0.017,100.0
2020-03-04T06:07:03,42.805,6.029,-0.018,-0.019,-0.046,104.0,106.0,101.0,13.4,1505.3,326.9,-0.7,1.8,2470.39,13.32,0.026,223.5
2020-03-04T06:10:03,42.805,6.029,0.0,-0.003,-0.041,103.0,106.0,102.0,13.4,1505.3,325.4,-0.7,1.9,2470.37,13.32,0.003,180.0
2020-03-04T06:13:03,42.805,6.029,0.007,-0.009,-0.083,104.0,105.0,102.0,13.4,1505.3,328.2,-0.7,1.9,2470.388,13.32,0.011,142.1
2020-03-04T06:16:03,42.805,6.029,-0.003,-0.017,-0.058,104.0,106.0,102.0,13.3,1505.3,326.8,-0.7,1.8,2470.392,13.33,0.017,190.0
2020-03-04T06:19:03,42.805,6.029,0.017,0.008,-0.035,105.0,106.0,102.0,13.4,1505.3,327.4,-0.7,1.8,2470.347,13.33,0.018,64.8
2020-03-04T06:22:03,42.805,6.029,0.004,0.001,-0.039,104.0,106.0,101.0,13.4,1505.3,326.3,-0.7,1.8,2470.37,13.33,0.004,76.0
2020-03-04T06:25:03,42.805,6.029,-0.011,0.012,-0.061,104.0,106.0,102.0,13.4,1505.3,325.1,-0.7,1.8,2470.362,13.33,0.016,317.5
2020-03-04T06:28:03,42.805,6.029,0.012,0.006,-0.03,105.0,106.0,101.0,13.4,1505.3,327.9,-0.7,1.8,2470.314,13.33,0.013,63.4
2020-03-04T06:31:03,42.805,6.029,0.02,0.002,-0.022,104.0,107.0,102.0,13.4,1505.3,323.9,-0.7,1.8,2470.356,13.33,0.02,84.3
2020-03-04T06:34:03,42.805,6.029,0.0,-0.009,-0.033,105.0,106.0,102.0,13.4,1505.3,324.2,-0.7,1.8,2470.324,13.33,0.009,180.0
2020-03-04T06:37:03,42.805,6.029,0.014,0.003,-0.037,104.0,107.0,101.0,13.3,1505.3,326.1,-0.7,1.8,2470.386,13.33,0.014,77.9
2020-03-04T06:40:03,42.805,6.029,0.0,-0.005,-0.028,105.0,107.0,101.0,13.4,1505.3,327.2,-0.7,1.8,2470.37,13.33,0.005,180.0
2020-03-04T06:43:03,42.805,6.029,0.0,-0.008,-0.062,104.0,106.0,101.0,13.4,1505.3,324.6,-0.7,1.8,2470.334,13.33,0.008,180.0
2020-03-04T06:46:03,42.805,6.029,0.003,0.023,-0.036,104.0,108.0,102.0,13.4,1505.3,325.5,-0.7,1.8,2470.352,13.33,0.023,7.4
2020-03-04T06:49:03,42.805,6.029,-0.017,0.01,-0.048,106.0,105.0,102.0,13.4,1505.3,325.6,-0.7,1.9,2470.316,13.33,0.019,300.5
2020-03-04T06:52:03,42.805,6.029,0.006,-0.014,-0.03,105.0,106.0,101.0,13.4,1505.3,327.8,-0.7,1.8,2470.312,13.33,0.015,156.8
2020-03-04T06:55:03,42.805,6.029,-0.012,0.018,-0.008,104.0,107.0,102.0,13.4,1505.3,324.9,-0.7,1.8,2470.351,13.33,0.021,326.3
2020-03-04T06:58:03,42.805,6.029,-0.005,0.007,-0.046,104.0,104.0,103.0,13.4,1505.3,323.3,-0.7,1.8,2470.313,13.33,0.008,324.5
2020-03-04T07:04:03,42.805,6.029,0.015,-0.013,-0.07,102.0,107.0,102.0,13.4,1505.3,323.0,-0.7,1.8,2470.401,13.31,0.019,130.9
2020-03-04T07:07:03,42.805,6.029,-0.019,-0.012,-0.055,103.0,105.0,101.0,13.4,1505.3,324.0,-0.7,1.8,2470.337,13.31,0.022,237.7
2020-03-04T07:10:03,42.805,6.029,-0.032,-0.01,-0.047,104.0,107.0,102.0,13.4,1505.3,325.8,-0.7,1.8,2470.336,13.32,0.033,252.6
2020-03-04T07:13:03,42.805,6.029,0.035,-0.013,-0.036,105.0,106.0,102.0,13.4,1505.3,326.6,-0.7,1.8,2470.333,13.32,0.037,110.4
2020-03-04T07:16:03,42.805,6.029,-0.002,-0.016,-0.021,104.0,106.0,101.0,13.4,1505.3,328.7,-0.7,1.8,2470.346,13.32,0.016,187.1
2020-03-04T07:19:03,42.805,6.029,0.005,0.003,-0.048,104.0,106.0,101.0,13.4,1505.3,323.7,-0.7,1.8,2470.365,13.33,0.005,59.0
2020-03-04T07:22:03,42.805,6.029,0.05,0.005,-0.015,105.0,106.0,101.0,13.4,1505.3,326.3,-0.7,1.9,2470.315,13.33,0.05,84.3
2020-03-04T07:25:03,42.805,6.029,0.03,-0.006,0.018,104.0,107.0,101.0,13.4,1505.3,326.2,-0.7,1.8,2470.343,13.33,0.03,101.3
2020-03-04T07:28:03,42.805,6.029,0.042,-0.019,-0.009,105.0,107.0,102.0,13.4,1505.3,328.4,-0.7,1.9,2470.344,13.33,0.046,114.3
2020-03-04T07:31:03,42.805,6.029,0.015,0.012,-0.009,105.0,106.0,102.0,13.3,1505.3,325.8,-0.6,1.8,2470.322,13.33,0.019,51.3
2020-03-04T07:34:03,42.805,6.029,0.015,-0.012,-0.045,104.0,106.0,102.0,13.4,1505.3,327.5,-0.7,1.8,2470.315,13.33,0.019,128.7
2020-03-04T07:37:03,42.805,6.029,0.013,-0.002,-0.086,105.0,104.0,101.0,13.4,1505.3,325.1,-0.7,1.8,2470.32,13.33,0.013,98.7
2020-03-04T07:40:03,42.805,6.029,-0.011,-0.012,-0.045,105.0,106.0,104.0,13.4,1505.3,327.9,-0.7,1.8,2470.343,13.33,0.016,222.5
2020-03-04T07:43:03,42.805,6.029,0.009,0.006,-0.043,107.0,106.0,103.0,13.4,1505.3,324.8,-0.7,1.8,2470.303,13.33,0.01,56.3
2020-03-04T07:46:03,42.805,6.029,0.002,0.0,-0.021,106.0,106.0,102.0,13.4,1505.3,327.8,-0.7,1.8,2470.347,13.33,0.002,90.0
2020-03-04T07:49:03,42.805,6.029,0.006,-0.01,-0.038,105.0,107.0,101.0,13.3,1505.3,326.3,-0.7,1.8,2470.336,13.33,0.011,149.0
2020-03-04T07:52:03,42.805,6.029,0.027,-0.013,-0.001,103.0,109.0,103.0,13.4,1505.3,324.6,-0.7,1.9,2470.308,13.33,0.029,115.7
2020-03-04T07:55:03,42.805,6.029,0.025,-0.025,-0.06,105.0,108.0,102.0,13.4,1505.3,324.9,-0.7,1.8,2470.326,13.33,0.035,135.0
2020-03-04T07:58:03,42.805,6.029,0.004,-0.022,-0.053,106.0,107.0,102.0,13.4,1505.3,326.8,-0.7,1.8,2470.329,13.33,0.022,169.7
2020-03-04T08:04:03,42.805,6.029,0.008,-0.007,-0.032,104.0,106.0,102.0,13.4,1505.3,324.4,-0.7,1.8,2470.379,13.31,0.01,131.2
2020-03-04T08:07:03,42.805,6.029,0.007,-0.014,-0.04,105.0,109.0,103.0,13.3,1505.3,328.5,-0.7,1.8,2470.351,13.31,0.015,153.4
2020-03-04T08:10:03,42.805,6.029,0.023,-0.023,-0.025,106.0,107.0,102.0,13.4,1505.3,325.6,-0.7,1.8,2470.317,13.32,0.032,135.0
2020-03-04T08:13:03,42.805,6.029,0.041,-0.013,0.015,105.0,107.0,103.0,13.4,1505.3,328.5,-0.7,1.9,2470.338,13.32,0.043,107.6
2020-03-04T08:16:03,42.805,6.029,0.002,-0.008,-0.037,104.0,107.0,102.0,13.4,1505.3,326.0,-0.7,1.8,2470.324,13.32,0.008,166.0
2020-03-04T08:19:03,42.805,6.029,-0.011,-0.014,-0.059,106.0,107.0,102.0,13.3,1505.3,328.5,-0.7,1.8,2470.276,13.33,0.017,218.2
2020-03-04T08:22:03,42.805,6.029,0.034,-0.035,-0.051,106.0,108.0,102.0,13.3,1505.3,324.3,-0.7,1.8,2470.327,13.33,0.048,135.8
2020-03-04T08:25:03,42.805,6.029,-0.001,-0.021,-0.044,106.0,108.0,102.0,13.4,1505.3,327.6,-0.7,1.8,2470.326,13.33,0.021,182.7
2020-03-04T08:28:03,42.805,6.029,0.011,-0.004,-0.01,105.0,108.0,102.0,13.3,1505.3,325.7,-0.7,1.8,2470.318,13.33,0.011,110.0
2020-03-04T08:31:03,42.805,6.029,0.029,-0.004,-0.01,105.0,107.0,102.0,13.3,1505.3,326.4,-0.7,1.8,2470.295,13.33,0.029,97.8
2020-03-04T08:34:03,42.805,6.029,0.031,-0.03,-0.049,106.0,108.0,103.0,13.3,1505.3,323.9,-0.7,1.8,2470.286,13.33,0.043,134.1
2020-03-04T08:37:03,42.805,6.029,0.016,-0.015,-0.037,105.0,108.0,103.0,13.3,1505.3,325.5,-0.7,1.8,2470.29,13.33,0.021,133.1
2020-03-04T08:40:03,42.805,6.029,-0.005,-0.007,-0.042,107.0,109.0,104.0,13.3,1505.3,326.1,-0.7,1.8,2470.279,13.33,0.008,215.5
2020-03-04T08:43:03,42.805,6.029,-0.004,-0.043,-0.011,105.0,109.0,102.0,13.4,1505.3,325.3,-0.7,1.9,2470.329,13.33,0.043,185.3
2020-03-04T08:46:03,42.805,6.029,0.038,-0.015,-0.004,105.0,108.0,102.0,13.4,1505.3,322.6,-0.7,1.8,2470.321,13.33,0.04,111.5
2020-03-04T08:49:03,42.805,6.029,0.015,-0.008,-0.031,105.0,108.0,103.0,13.4,1505.3,322.8,-0.7,1.8,2470.305,13.33,0.017,118.1
2020-03-04T08:52:03,42.805,6.029,0.034,-0.025,-0.022,106.0,109.0,102.0,13.4,1505.3,324.0,-0.7,1.9,2470.324,13.33,0.042,126.3
2020-03-04T08:55:03,42.805,6.029,0.031,-0.01,-0.013,106.0,108.0,103.0,13.3,1505.3,325.2,-0.7,1.8,2470.307,13.33,0.032,107.9
2020-03-04T08:58:03,42.805,6.029,0.03,0.0,0.004,107.0,108.0,103.0,13.3,1505.3,326.3,-0.7,1.8,2470.316,13.33,0.03,90.0
2020-03-04T09:04:03,42.805,6.029,0.009,0.006,-0.013,107.0,109.0,102.0,13.4,1505.3,326.7,-0.7,1.8,2470.356,13.31,0.01,56.3
2020-03-04T12:04:03,42.805,6.029,0.033,-0.033,-0.041,106.0,107.0,103.0,13.4,1505.1,325.6,-0.8,1.8,2470.818,13.27,0.046,135.0
2020-03-04T12:07:03,42.805,6.029,0.014,-0.018,-0.04,106.0,105.0,102.0,13.4,1505.2,324.1,-0.8,1.8,2470.757,13.29,0.022,142.1
2020-03-04T12:10:03,42.805,6.029,-0.009,-0.004,0.004,105.0,107.0,102.0,13.4,1505.2,323.2,-0.7,1.9,2470.685,13.3,0.009,246.0
2020-03-04T12:13:03,42.805,6.029,0.0,-0.021,-0.028,106.0,107.0,102.0,13.4,1505.3,327.4,-0.7,1.8,2470.635,13.31,0.021,180.0
2020-03-04T12:16:03,42.805,6.029,-0.003,-0.033,-0.03,106.0,107.0,101.0,13.3,1505.3,327.1,-0.7,1.8,2470.591,13.31,0.033,185.2
2020-03-04T12:19:03,42.805,6.029,0.023,-0.015,-0.006,106.0,108.0,102.0,13.4,1505.3,324.6,-0.7,1.8,2470.504,13.32,0.027,123.1
2020-03-04T12:22:03,42.805,6.029,-0.021,-0.028,-0.068,106.0,105.0,101.0,13.4,1505.3,328.1,-0.7,1.8,2470.462,13.32,0.035,216.9
2020-03-04T12:25:03,42.805,6.029,-0.012,-0.025,-0.032,103.0,106.0,102.0,13.4,1505.3,326.0,-0.7,1.8,2470.469,13.32,0.027,205.6
2020-03-04T12:28:03,42.805,6.029,-0.003,-0.032,-0.07,104.0,105.0,103.0,13.3,1505.3,328.8,-0.7,1.8,2470.45,13.32,0.032,185.4
2020-03-04T12:31:03,42.805,6.029,-0.015,-0.031,-0.029,104.0,106.0,103.0,13.4,1505.3,327.4,-0.7,1.8,2470.424,13.32,0.034,205.8
2020-03-04T12:34:03,42.805,6.029,0.009,-0.024,-0.013,106.0,106.0,101.0,13.3,1505.3,323.0,-0.7,1.8,2470.436,13.32,0.025,159.4
2020-03-04T12:37:03,42.805,6.029,0.012,-0.013,-0.028,106.0,105.0,102.0,13.4,1505.3,325.3,-0.7,1.8,2470.393,13.32,0.017,137.3
2020-03-04T12:40:03,42.805,6.029,0.024,-0.022,-0.04,105.0,107.0,103.0,13.4,1505.3,325.4,-0.7,1.8,2470.397,13.32,0.032,132.5
2020-03-04T12:43:03,42.805,6.029,-0.005,-0.033,-0.027,105.0,105.0,102.0,13.4,1505.3,328.5,-0.7,1.9,2470.376,13.32,0.033,188.6
2020-03-04T12:46:03,42.805,6.029,0.001,-0.015,-0.009,104.0,106.0,101.0,13.4,1505.3,325.9,-0.7,1.8,2470.408,13.32,0.015,176.2
2020-03-04T12:49:03,42.805,6.029,-0.016,-0.009,-0.013,103.0,105.0,101.0,13.4,1505.3,328.6,-0.7,1.8,2470.338,13.32,0.018,240.6
2020-03-04T12:52:03,42.805,6.029,0.005,-0.023,-0.046,103.0,104.0,102.0,13.4,1505.3,326.6,-0.7,1.8,2470.311,13.32,0.023,167.7
2020-03-04T12:55:03,42.805,6.029,0.002,-0.024,-0.017,107.0,107.0,102.0,13.4,1505.3,327.3,-0.8,1.8,2470.336,13.32,0.024,175.2
2020-03-04T12:58:03,42.805,6.029,0.003,-0.016,-0.054,103.0,104.0,100.0,13.4,1505.3,323.8,-0.7,1.9,2470.341,13.32,0.016,169.4